H1 CPF 2 NER 2022 7 16 9 197 01 glonass127 H2 1106403 9127 37869 2022 7 16 0 0 0 2022 7 19 23 45 0 900 1 1 0 0 0 1 H9 10 0 59776 0.00000 0 -13015040.758 7970590.443 -20389641.698 10 0 59776 900.00000 0 -15434467.632 7802883.680 -18703736.312 10 0 59776 1800.00000 0 -17628867.831 7819629.630 -16653110.951 10 0 59776 2700.00000 0 -19543012.487 7987465.305 -14277965.460 10 0 59776 3600.00000 0 -21130984.273 8264094.114 -11624783.565 10 0 59776 4500.00000 0 -22357908.551 8600270.822 -8745403.648 10 0 59776 5400.00000 0 -23201229.805 8942087.359 -5695988.525 10 0 59776 6300.00000 0 -23651482.169 9233460.557 -2535915.964 10 0 59776 7200.00000 0 -23712524.589 9418714.957 673387.019 10 0 59776 8100.00000 0 -23401233.928 9445150.555 3869642.351 10 0 59776 9000.00000 0 -22746672.083 9265486.745 6990927.793 10 0 59776 9900.00000 0 -21788764.966 8840079.842 9976868.977 10 0 59776 10800.00000 0 -20576551.190 8138821.677 12769794.065 10 0 59776 11700.00000 0 -19166075.511 7142640.745 15315829.867 10 0 59776 12600.00000 0 -17618016.009 5844544.363 17565919.750 10 0 59776 13500.00000 0 -15995144.144 4250159.413 19476745.817 10 0 59776 14400.00000 0 -14359722.725 2377749.966 21011539.870 10 0 59776 15300.00000 0 -12770948.663 257711.331 22140769.838 10 0 59776 16200.00000 0 -11282544.808 -2068438.911 22842690.717 10 0 59776 17100.00000 0 -9940598.672 -4549532.271 23103751.277 10 0 59776 18000.00000 0 -8781735.592 -7126624.063 22918850.039 10 0 59776 18900.00000 0 -7831700.283 -9735196.439 22291436.254 10 0 59776 19800.00000 0 -7104404.313 -12307601.569 21233453.882 10 0 59776 20700.00000 0 -6601478.480 -14775646.864 19765128.805 10 0 59776 21600.00000 0 -6312348.793 -17073218.154 17914601.840 10 0 59776 22500.00000 0 -6214833.710 -19138834.547 15717412.503 10 0 59776 23400.00000 0 -6276239.127 -20918030.620 13215841.059 10 0 59776 24300.00000 0 -6454907.060 -22365467.826 10458118.876 10 0 59776 25200.00000 0 -6702154.909 -23446687.110 7497519.770 10 0 59776 26100.00000 0 -6964525.493 -24139428.594 4391347.730 10 0 59776 27000.00000 0 -7186254.203 -24434461.470 1199838.861 10 0 59776 27900.00000 0 -7311849.643 -24335887.088 -2015002.305 10 0 59776 28800.00000 0 -7288678.271 -23860900.059 -5190609.778 10 0 59776 29700.00000 0 -7069442.319 -23039015.010 -8265082.559 10 0 59776 30600.00000 0 -6614443.983 -21910789.646 -11178405.721 10 0 59776 31500.00000 0 -5893537.081 -20526096.387 -13873640.557 10 0 59776 32400.00000 0 -4887680.195 -18942014.735 -16298058.669 10 0 59776 33300.00000 0 -3590022.135 -17220433.430 -18404195.704 10 0 59776 34200.00000 0 -2006470.526 -15425464.308 -20150801.894 10 0 59776 35100.00000 0 -155716.589 -13620778.253 -21503668.891 10 0 59776 36000.00000 0 1931287.341 -11866977.149 -22436314.987 10 0 59776 36900.00000 0 4212377.017 -10219114.342 -22930514.030 10 0 59776 37800.00000 0 6635708.888 -8724469.561 -22976656.914 10 0 59776 38700.00000 0 9141711.800 -7420672.979 -22573938.251 10 0 59776 39600.00000 0 11665375.222 -6334257.859 -21730364.724 10 0 59776 40500.00000 0 14138777.107 -5479702.291 -20462585.590 10 0 59776 41400.00000 0 16493744.254 -4858999.171 -18795549.622 10 0 59776 42300.00000 0 18664532.540 -4461770.626 -16761996.530 10 0 59776 43200.00000 0 20590413.944 -4265919.458 -14401794.409 10 0 59776 44100.00000 0 22218061.655 -4238787.097 -11761137.827 10 0 59776 45000.00000 0 23503633.570 -4338766.020 -8891624.131 10 0 59776 45900.00000 0 24414467.934 -4517295.375 -5849227.749 10 0 59776 46800.00000 0 24930321.721 -4721152.661 -2693194.130 10 0 59776 47700.00000 0 25044102.155 -4894942.324 515123.657 10 0 59776 48600.00000 0 24762063.457 -4983674.525 3713461.998 10 0 59776 49500.00000 0 24103463.522 -4935324.250 6839853.674 10 0 59776 50400.00000 0 23099697.779 -4703262.754 9833821.103 10 0 59776 51300.00000 0 21792949.072 -4248459.356 12637533.332 10 0 59776 52200.00000 0 20234411.964 -3541362.042 15196905.495 10 0 59776 53100.00000 0 18482166.912 -2563379.197 17462621.046 10 0 59776 54000.00000 0 16598793.319 -1307901.719 19391059.090 10 0 59776 54900.00000 0 14648820.377 219176.172 20945111.226 10 0 59776 55800.00000 0 12696120.472 1999458.520 22094874.469 10 0 59776 56700.00000 0 10801351.493 4002571.619 22818209.168 10 0 59776 57600.00000 0 9019551.882 6187189.475 23101153.059 10 0 59776 58500.00000 0 7397985.763 8502519.712 22938184.824 10 0 59776 59400.00000 0 5974325.224 10890190.612 22332332.811 10 0 59776 60300.00000 0 4775243.278 13286463.922 21295126.768 10 0 59776 61200.00000 0 3815474.678 15624684.697 19846392.731 10 0 59776 62100.00000 0 3097383.109 17837869.687 18013893.493 10 0 59776 63000.00000 0 2611052.951 19861329.591 15832819.532 10 0 59776 63900.00000 0 2334902.787 21635218.234 13345137.744 10 0 59776 64800.00000 0 2236796.338 23106903.947 10598807.927 10 0 59776 65700.00000 0 2275606.006 24233064.606 7646879.563 10 0 59776 66600.00000 0 2403165.015 24981418.162 4546484.163 10 0 59776 67500.00000 0 2566527.321 25332014.790 1357740.895 10 0 59776 68400.00000 0 2710440.778 25278034.319 -1857404.415 10 0 59776 69300.00000 0 2779929.106 24826052.788 -5036384.684 10 0 59776 70200.00000 0 2722872.617 23995764.377 -8117237.652 10 0 59776 71100.00000 0 2492476.742 22819167.793 -11039827.778 10 0 59776 72000.00000 0 2049521.332 21339249.360 -13747038.448 10 0 59776 72900.00000 0 1364292.483 19608217.009 -16185909.373 10 0 59776 73800.00000 0 418111.728 17685358.953 -18308694.791 10 0 59776 74700.00000 0 -795605.405 15634617.519 -20073819.557 10 0 59776 75600.00000 0 -2270809.287 13521981.158 -21446712.481 10 0 59776 76500.00000 0 -3988819.973 11412805.736 -22400498.854 10 0 59776 77400.00000 0 -5918876.544 9369179.425 -22916537.331 10 0 59776 78300.00000 0 -8019210.059 7447443.500 -22984789.831 10 0 59776 79200.00000 0 -10238595.333 5695974.443 -22604016.878 10 0 59776 80100.00000 0 -12518315.960 4153321.236 -21781794.722 10 0 59776 81000.00000 0 -14794459.203 2846776.027 -20534354.489 10 0 59776 81900.00000 0 -17000443.290 1791437.311 -18886247.475 10 0 59776 82800.00000 0 -19069669.673 989803.357 -16869844.486 10 0 59776 83700.00000 0 -20938187.919 431910.504 -14524680.539 10 0 59776 84600.00000 0 -22547260.649 96007.453 -11896659.450 10 0 59776 85500.00000 0 -23845720.610 -50266.176 -9037135.721 10 0 59777 0.00000 0 -24792021.355 -48250.247 -6001893.678 10 0 59777 900.00000 0 -25355897.043 53744.493 -2850043.757 10 0 59777 1800.00000 0 -25519562.180 202736.360 357136.949 10 0 59777 2700.00000 0 -25278405.012 343564.626 3557401.736 10 0 59777 3600.00000 0 -24641146.674 421466.742 6688741.012 10 0 59777 4500.00000 0 -23629462.705 384631.449 9690576.733 10 0 59777 5400.00000 0 -22277085.167 186620.282 12504921.672 10 0 59777 6300.00000 0 -20628424.976 -211443.742 15077482.185 10 0 59777 7200.00000 0 -18736773.418 -839011.023 17358684.668 10 0 59777 8100.00000 0 -16662158.469 -1714640.706 19304607.945 10 0 59777 9000.00000 0 -14468944.880 -2844996.521 20877805.912 10 0 59777 9900.00000 0 -12223276.800 -4224344.020 22048006.861 10 0 59777 10800.00000 0 -9990467.256 -5834569.879 22792678.321 10 0 59777 11700.00000 0 -7832440.432 -7645722.742 23097448.415 10 0 59777 12600.00000 0 -5805330.223 -9617054.226 22956376.998 10 0 59777 13500.00000 0 -3957331.946 -11698518.720 22372072.119 10 0 59777 14400.00000 0 -2326893.925 -13832672.243 21355649.514 10 0 59777 15300.00000 0 -941322.230 -15956894.395 19926535.174 10 0 59777 16200.00000 0 184144.613 -18005844.202 18112113.299 10 0 59777 17100.00000 0 1046752.822 -19914050.703 15947224.371 10 0 59777 18000.00000 0 1656124.614 -21618532.824 13473520.591 10 0 59777 18900.00000 0 2033627.052 -23061341.115 10738688.512 10 0 59777 19800.00000 0 2211243.451 -24191916.027 7795551.279 10 0 59777 20700.00000 0 2229993.066 -24969163.881 4701065.632 10 0 59777 21600.00000 0 2137964.038 -25363162.427 1515231.275 10 0 59777 22500.00000 0 1988041.439 -25356422.437 -1700067.406 10 0 59777 23400.00000 0 1835425.850 -24944649.692 -4882265.143 10 0 59777 24300.00000 0 1735047.769 -24136972.471 -7969341.446 10 0 59777 25200.00000 0 1738988.441 -22955622.031 -10901043.277 10 0 59777 26100.00000 0 1894018.316 -21435077.023 -13620079.310 10 0 59777 27000.00000 0 2239360.027 -19620705.787 -16073260.535 10 0 59777 27900.00000 0 2804773.736 -17566962.489 -18212562.827 10 0 59777 28800.00000 0 3609049.018 -15335212.737 -19996088.500 10 0 59777 29700.00000 0 4658970.195 -12991280.336 -21388906.040 10 0 59777 30600.00000 0 5948801.584 -10602819.279 -22363749.877 10 0 59777 31500.00000 0 7460316.454 -8236622.767 -22901565.161 10 0 59777 32400.00000 0 9163369.916 -5955983.693 -22991886.047 10 0 59777 33300.00000 0 11016992.243 -3818218.630 -22633039.730 10 0 59777 34200.00000 0 12970956.472 -1872460.173 -21832172.335 10 0 59777 35100.00000 0 14967753.638 -157810.461 -20605096.744 10 0 59777 36000.00000 0 16944891.450 1298067.166 -18975966.275 10 0 59777 36900.00000 0 18837418.328 2479860.565 -16976781.905 10 0 59777 37800.00000 0 20580565.376 3384989.107 -14646744.237 10 0 59777 38700.00000 0 22112394.120 4023438.780 -12031464.571 10 0 59777 39600.00000 0 23376337.940 4417062.363 -9182052.352 10 0 59777 40500.00000 0 24323530.322 4598377.740 -6154098.623 10 0 59777 41400.00000 0 24914822.559 4608918.664 -3006576.915 10 0 59777 42300.00000 0 25122407.317 4497210.756 199315.459 10 0 59777 43200.00000 0 24930981.619 4316460.976 3401352.145 10 0 59777 44100.00000 0 24338402.636 4122060.077 6537484.670 10 0 59777 45000.00000 0 23355811.138 3969004.613 9547037.964 10 0 59777 45900.00000 0 22007219.826 3909347.557 12371871.815 10 0 59777 46800.00000 0 20328585.767 3989784.474 14957486.859 10 0 59777 47700.00000 0 18366407.271 4249475.738 17254055.214 10 0 59777 48600.00000 0 16175904.481 4718194.860 19217357.893 10 0 59777 49500.00000 0 13818859.413 5414879.031 20809613.222 10 0 59777 50400.00000 0 11361204.402 6346641.194 22000182.554 10 0 59777 51300.00000 0 8870457.371 7508284.020 22766142.002 10 0 59777 52200.00000 0 6413107.979 8882335.831 23092711.073 10 0 59777 53100.00000 0 4052060.314 10439607.467 22973531.356 10 0 59777 54000.00000 0 1844235.201 12140248.250 22410790.684 10 0 59777 54900.00000 0 -161571.231 13935259.229 21415190.386 10 0 59777 55800.00000 0 -1926486.147 15768403.321 20005755.534 10 0 59777 56700.00000 0 -3422942.800 17578435.855 18209490.403 10 0 59777 57600.00000 0 -4635590.926 19301565.617 16060883.742 10 0 59777 58500.00000 0 -5561696.877 20874046.426 13601270.979 10 0 59777 59400.00000 0 -6211016.161 22234793.169 10878063.068 10 0 59777 60300.00000 0 -6605142.547 23327914.159 7943854.249 10 0 59777 61200.00000 0 -6776359.440 24105054.046 4855423.764 10 0 59777 62100.00000 0 -6766040.240 24527448.247 1672649.016 10 0 59777 63000.00000 0 -6622663.713 24567600.903 -1542649.946 10 0 59777 63900.00000 0 -6399527.249 24210513.381 -4727912.568 10 0 59777 64800.00000 0 -6152254.512 23454408.665 -7821062.967 10 0 59777 65700.00000 0 -5936203.542 22310917.964 -10761733.351 10 0 59777 66600.00000 0 -5803886.489 20804718.665 -13492460.227 10 0 59777 67500.00000 0 -5802512.450 18972636.268 -15959828.185 10 0 59777 68400.00000 0 -5971760.145 16862246.307 -18115536.832 10 0 59777 69300.00000 0 -6341877.717 14530033.887 -19917367.773 10 0 59777 70200.00000 0 -6932193.015 12039188.000 -21330030.757 10 0 59777 71100.00000 0 -7750100.090 9457123.609 -22325870.692 10 0 59777 72000.00000 0 -8790566.955 6852836.543 -22885420.306 10 0 59777 72900.00000 0 -10036186.946 4294203.460 -22997786.803 10 0 59777 73800.00000 0 -11457772.381 1845341.303 -22660864.538 10 0 59777 74700.00000 0 -13015465.525 -435861.889 -21881369.660 10 0 59777 75600.00000 0 -14660319.455 -2499940.872 -20674696.574 10 0 59777 76500.00000 0 -16336281.141 -4307679.953 -19064599.988 10 0 59777 77400.00000 0 -17982491.710 -5831496.882 -17082710.054 10 0 59777 78300.00000 0 -19535805.482 -7056327.628 -14767891.623 10 0 59777 79200.00000 0 -20933420.253 -7979977.408 -12165461.844 10 0 59777 80100.00000 0 -22115506.908 -8612926.336 -9326283.246 10 0 59777 81000.00000 0 -23027727.018 -8977601.461 -6305751.816 10 0 59777 81900.00000 0 -23623532.419 -9107149.560 -3162701.424 10 0 59777 82800.00000 0 -23866150.599 -9043765.964 41752.491 10 0 59777 83700.00000 0 -23730173.627 -8836653.083 3245406.423 10 0 59777 84600.00000 0 -23202685.585 -8539697.253 6386175.668 10 0 59777 85500.00000 0 -22283883.209 -8208963.607 9403290.894 10 0 59778 0.00000 0 -20987166.022 -7900115.456 12238461.511 10 0 59778 900.00000 0 -19338693.355 -7665866.697 14836985.815 10 0 59778 1800.00000 0 -17376430.241 -7553574.048 17148784.185 10 0 59778 2700.00000 0 -15148720.568 -7603068.406 19129342.489 10 0 59778 3600.00000 0 -12712448.769 -7844815.069 20740545.903 10 0 59778 4500.00000 0 -10130865.221 -8298478.079 21951390.945 10 0 59778 5400.00000 0 -7471164.242 -8971947.348 22738564.052 10 0 59778 6300.00000 0 -4801912.858 -9860868.381 23086877.458 10 0 59778 7200.00000 0 -2190434.277 -10948694.021 22989555.428 10 0 59778 8100.00000 0 299748.615 -12207256.761 22448366.134 10 0 59778 9000.00000 0 2611306.835 -13597839.249 21473596.669 10 0 59778 9900.00000 0 4695239.299 -15072700.512 20083870.999 10 0 59778 10800.00000 0 6512660.922 -16576996.974 18305812.931 10 0 59778 11700.00000 0 8036171.865 -18051021.010 16173558.576 10 0 59778 12600.00000 0 9250751.475 -19432666.298 13728125.322 10 0 59778 13500.00000 0 10154139.428 -20660019.271 11016646.880 10 0 59778 14400.00000 0 10756687.215 -21673969.810 8091486.582 10 0 59778 15300.00000 0 11080684.756 -22420732.437 5009243.833 10 0 59778 16200.00000 0 11159188.809 -22854171.848 1829671.120 10 0 59778 17100.00000 0 11034400.928 -22937833.745 -1385478.687 10 0 59778 18000.00000 0 10755662.115 -22646593.280 -4573652.760 10 0 59778 18900.00000 0 10377148.224 -21967848.773 -7672722.913 10 0 59778 19800.00000 0 9955363.705 -20902207.290 -10622209.717 10 0 59778 20700.00000 0 9546540.546 -19463629.745 -13364480.621 10 0 59778 21600.00000 0 9204054.215 -17679026.314 -15845896.852 10 0 59778 22500.00000 0 8975968.304 -15587316.779 -18017884.625 10 0 59778 23400.00000 0 8902814.430 -13237993.572 -19837907.491 10 0 59778 24300.00000 0 9015704.116 -10689246.964 -21270318.819 10 0 59778 25200.00000 0 9334855.162 -8005730.863 -22287075.970 10 0 59778 26100.00000 0 9868597.028 -5256063.569 -22868300.798 10 0 59778 27000.00000 0 10612898.897 -2510169.254 -23002674.638 10 0 59778 27900.00000 0 11551441.332 163427.317 -22687659.641 10 0 59778 28800.00000 0 12656228.641 2700238.278 -21929542.164 10 0 59778 29700.00000 0 13888715.618 5042271.132 -20743297.909 10 0 59778 30600.00000 0 15201400.024 7140205.046 -19152282.356 10 0 59778 31500.00000 0 16539812.045 8955194.131 -17187753.830 10 0 59778 32400.00000 0 17844815.061 10460223.455 -14888240.054 10 0 59778 33300.00000 0 19055118.928 11640962.989 -12298762.272 10 0 59778 34200.00000 0 20109898.196 12496086.332 -9469933.982 10 0 59778 35100.00000 0 20951403.732 13037044.256 -6456953.630 10 0 59778 36000.00000 0 21527457.066 13287306.190 -3318512.645 10 0 59778 36900.00000 0 21793722.384 13281105.320 -115641.578 10 0 59778 37800.00000 0 21715661.193 13061743.588 3089482.081 10 0 59778 38700.00000 0 21270088.660 12679531.017 6234740.599 10 0 59778 39600.00000 0 20446267.892 12189448.370 9259273.549 10 0 59778 40500.00000 0 19246498.118 11648633.002 12104643.484 10 0 59778 41400.00000 0 17686173.967 11113794.178 14715948.195 10 0 59778 42300.00000 0 15793314.972 10638666.149 17042859.487 10 0 59778 43200.00000 0 13607585.989 10271604.843 19040570.461 10 0 59778 44100.00000 0 11178849.710 10053427.362 20670635.251 10 0 59778 45000.00000 0 8565311.081 10015582.936 21901687.361 10 0 59778 45900.00000 0 5831329.419 10178730.068 22710025.032 10 0 59778 46800.00000 0 3044986.872 10551777.923 23080054.342 10 0 59778 47700.00000 0 275511.435 11131431.114 23004582.928 10 0 59778 48600.00000 0 -2409341.826 11902256.815 22484959.533 10 0 59778 49500.00000 0 -4945846.088 12837272.183 21531056.762 10 0 59778 50400.00000 0 -7276691.573 13899029.076 20161096.712 10 0 59778 51300.00000 0 -9353111.364 15041153.002 18401321.469 10 0 59778 52200.00000 0 -11136657.781 16210274.646 16285512.811 10 0 59778 53100.00000 0 -12600556.361 17348275.844 13854368.014 10 0 59778 54000.00000 0 -13730581.235 18394758.521 11154741.187 10 0 59778 54900.00000 0 -14525414.697 19289635.030 8238762.192 10 0 59778 55800.00000 0 -14996474.612 19975732.285 5162847.915 10 0 59778 56700.00000 0 -15167215.312 20401300.437 1986623.159 10 0 59778 57600.00000 0 -15071929.633 20522319.658 -1228229.175 10 0 59778 58500.00000 0 -14754100.980 20304506.008 -4419166.756 10 0 59778 59400.00000 0 -14264373.919 19724929.278 -7524011.855 10 0 59778 60300.00000 0 -13658228.587 18773171.308 -10482176.087 10 0 59778 61200.00000 0 -12993457.515 17451972.461 -13235860.367 10 0 59778 62100.00000 0 -12327552.804 15777335.678 -15731204.913 10 0 59778 63000.00000 0 -11715115.941 13778080.629 -17919364.692 10 0 59778 63900.00000 0 -11205402.125 11494864.406 -19757487.093 10 0 59778 64800.00000 0 -10840105.512 8978708.316 -21209570.719 10 0 59778 65700.00000 0 -10651481.480 6289091.778 -22247186.716 10 0 59778 66600.00000 0 -10660887.503 3491693.338 -22850047.096 10 0 59778 67500.00000 0 -10877805.963 655874.078 -23006408.055 10 0 59778 68400.00000 0 -11299391.194 -2147990.203 -22713299.932 10 0 59778 69300.00000 0 -11910560.146 -4851215.126 -21976579.327 10 0 59778 70200.00000 0 -12684622.369 -7389437.956 -20810802.904 10 0 59778 71100.00000 0 -13584421.578 -9705061.246 -19238926.206 10 0 59778 72000.00000 0 -14563938.939 -11749407.476 -17291834.662 10 0 59778 72900.00000 0 -15570288.405 -13484495.218 -15007717.492 10 0 59778 73800.00000 0 -16546017.770 -14884363.918 -12431298.392 10 0 59778 74700.00000 0 -17431616.303 -15935893.925 -9612939.966 10 0 59778 75600.00000 0 -18168121.464 -16639090.356 -6607641.128 10 0 59778 76500.00000 0 -18699713.544 -17006822.274 -3473948.730 10 0 59778 77400.00000 0 -18976188.206 -17064031.755 -272806.200 10 0 59778 78300.00000 0 -18955202.819 -16846449.734 2933637.330 10 0 59778 79200.00000 0 -18604202.704 -16398875.922 6083233.553 10 0 59778 80100.00000 0 -17901947.513 -15773097.819 9115033.500 10 0 59778 81000.00000 0 -16839575.193 -15025538.278 11970455.260 10 0 59778 81900.00000 0 -15421160.597 -14214731.475 14594399.288 10 0 59778 82800.00000 0 -13663746.943 -13398733.404 16936291.183 10 0 59778 83700.00000 0 -11596849.954 -12632574.742 18951033.786 10 0 59778 84600.00000 0 -9261455.882 -11965861.413 20599852.515 10 0 59778 85500.00000 0 -6708554.998 -11440621.378 21851019.911 10 0 59779 0.00000 0 -3997270.685 -11089485.686 22680447.715 10 0 59779 900.00000 0 -1192658.414 -10934277.716 23072137.403 10 0 59779 1800.00000 0 1636732.882 -10985068.476 23018480.937 10 0 59779 2700.00000 0 4421443.970 -11239735.927 22520408.334 10 0 59779 3600.00000 0 7093725.611 -11684047.228 21587378.054 10 0 59779 4500.00000 0 9590091.971 -12292261.039 20237210.338 10 0 59779 5400.00000 0 11853703.909 -13028226.338 18495765.221 10 0 59779 6300.00000 0 13836485.397 -13846933.951 16396469.458 10 0 59779 7200.00000 0 15500886.455 -14696458.324 13979699.141 10 0 59779 8100.00000 0 16821219.702 -15520210.612 11292027.299 10 0 59779 9000.00000 0 17784514.480 -16259410.675 8385348.425 10 0 59779 9900.00000 0 18390851.639 -16855675.610 5315894.567 10 0 59779 10800.00000 0 18653163.443 -17253616.542 2143160.169 10 0 59779 11700.00000 0 18596505.125 -17403333.945 -1071244.820 10 0 59779 12600.00000 0 18256826.860 -17262704.897 -4264791.754 10 0 59779 13500.00000 0 17679296.507 -16799363.542 -7375256.650 10 0 59779 14400.00000 0 16916242.907 -15992288.150 -10341945.448 10 0 59779 15300.00000 0 16024806.397 -14832924.413 -13106895.791 10 0 59779 16200.00000 0 15064396.261 -13325793.873 -15616030.006 10 0 59779 17100.00000 0 14094063.977 -11488558.464 -17820234.717 10 0 59779 18000.00000 0 13169905.166 -9351535.762 -19676343.806 10 0 59779 18900.00000 0 12342602.201 -6956682.908 -21148003.453 10 0 59779 19800.00000 0 11655213.607 -4356090.502 -22206400.559 10 0 59779 20700.00000 0 11141305.773 -1610049.187 -22830838.842 10 0 59779 21600.00000 0 10823507.580 1215229.963 -23009150.444 10 0 59779 22500.00000 0 10712550.014 4050145.041 -22737934.497 10 0 59779 23400.00000 0 10806831.709 6824375.882 -22022617.989 10 0 59779 24300.00000 0 11092528.272 9469586.721 -20877338.225 10 0 59779 25200.00000 0 11544239.676 11922044.953 -19324650.063 10 0 59779 26100.00000 0 12126146.601 14125045.855 -17395064.885 10 0 59779 27000.00000 0 12793624.708 16031041.954 -15126431.847 10 0 59779 27900.00000 0 13495246.266 17603388.780 -12563175.176 10 0 59779 28800.00000 0 14175082.177 18817635.412 -9755404.301 10 0 59779 29700.00000 0 14775205.005 19662308.167 -6757915.989 10 0 59779 30600.00000 0 15238285.576 20139157.537 -3629109.640 10 0 59779 31500.00000 0 15510172.378 20262861.348 -429838.469 10 0 59779 32400.00000 0 15542344.457 20060200.206 2777779.938 10 0 59779 33300.00000 0 15294134.576 19568743.228 5931569.909 10 0 59779 34200.00000 0 14734629.865 18835102.267 8970497.058 10 0 59779 35100.00000 0 13844171.228 17912830.251 11835837.986 10 0 59779 36000.00000 0 12615390.094 16860053.346 14472298.576 10 0 59779 36900.00000 0 11053740.539 15736936.811 16829060.735 10 0 59779 37800.00000 0 9177505.774 14603090.377 18860739.298 10 0 59779 38700.00000 0 7017279.443 13515020.560 20528232.934 10 0 59779 39600.00000 0 4614943.446 12523734.695 21799454.886 10 0 59779 40500.00000 0 2022184.071 11672594.581 22649931.837 10 0 59779 41400.00000 0 -701393.537 10995507.136 23063261.331 10 0 59779 42300.00000 0 -3490476.565 10515525.561 23031420.408 10 0 59779 43200.00000 0 -6276492.659 10243917.858 22554920.461 10 0 59779 44100.00000 0 -8990196.785 10179740.786 21642805.439 10 0 59779 45000.00000 0 -11564292.843 10309937.043 20312492.854 10 0 59779 45900.00000 0 -13935984.414 10609952.483 18589459.314 10 0 59779 46800.00000 0 -16049351.303 11044849.083 16506774.730 10 0 59779 47700.00000 0 -17857454.829 11570869.128 14104491.791 10 0 59779 48600.00000 0 -19324085.128 12137387.315 11428899.936 10 0 59779 49500.00000 0 -20425077.592 12689170.953 8531655.570 10 0 59779 50400.00000 0 -21149142.511 13168854.988 5468803.086 10 0 59779 51300.00000 0 -21498171.675 13519528.667 2299703.712 10 0 59779 52200.00000 0 -21487007.085 13687324.917 -914108.384 10 0 59779 53100.00000 0 -21142679.456 13623902.334 -4110121.022 10 0 59779 54000.00000 0 -20503146.701 13288713.193 -7226066.680 10 0 59779 54900.00000 0 -19615584.056 12650958.963 -10201148.266 10 0 59779 55800.00000 0 -18534297.238 11691147.531 -12977242.629 10 0 59779 56700.00000 0 -17318346.614 10402182.715 -15500056.509 10 0 59779 57600.00000 0 -16028983.487 8789936.571 -17720210.287 10 0 59779 58500.00000 0 -14727008.117 6873277.099 -19594226.149 10 0 59779 59400.00000 0 -13470162.875 4683547.482 -21085399.320 10 0 59779 60300.00000 0 -12310672.625 2263516.764 -22164533.565 10 0 59779 61200.00000 0 -11293038.106 -334155.115 -22810525.039 10 0 59779 62100.00000 0 -10452177.158 -3048873.893 -23010782.172 10 0 59779 63000.00000 0 -9811993.305 -5814406.835 -22761472.852 10 0 59779 63900.00000 0 -9384432.571 -8561420.809 -22067594.022 10 0 59779 64800.00000 0 -9169067.966 -11220155.288 -20942862.848 10 0 59779 65700.00000 0 -9153228.076 -13723117.313 -19409432.376 10 0 59779 66600.00000 0 -9312662.543 -16007684.734 -17497438.509 10 0 59779 67500.00000 0 -9612714.010 -18018508.414 -15244388.675 10 0 59779 68400.00000 0 -10009944.379 -19709613.109 -12694405.785 10 0 59779 69300.00000 0 -10454143.920 -21046109.952 -9897344.132 10 0 59779 70200.00000 0 -10890635.717 -22005450.557 -6907796.318 10 0 59779 71100.00000 0 -11262775.822 -22578172.612 -3784012.258 10 0 59779 72000.00000 0 -11514541.761 -22768108.605 -586752.922 10 0 59779 72900.00000 0 -11593099.055 -22592052.227 2621897.698 10 0 59779 73800.00000 0 -11451237.066 -22078899.793 5779738.637 10 0 59779 74700.00000 0 -11049571.855 -21268305.770 8825652.210 10 0 59779 75600.00000 0 -10358424.197 -20208911.444 11700775.684 10 0 59779 76500.00000 0 -9359295.073 -18956222.821 14349622.557 10 0 59779 77400.00000 0 -8045878.181 -17570227.671 16721133.212 10 0 59779 78300.00000 0 -6424568.365 -16112851.497 18769636.587 10 0 59779 79200.00000 0 -4514445.631 -14645357.928 20455706.573 10 0 59779 80100.00000 0 -2346735.807 -13225800.544 21746898.919 10 0 59779 81000.00000 0 36230.085 -11906630.293 22618356.766 10 0 59779 81900.00000 0 2582515.744 -10732555.846 23053275.182 10 0 59779 82800.00000 0 5232478.415 -9738743.711 23043217.230 10 0 59779 83700.00000 0 7920990.574 -8949431.052 22588276.436 10 0 59779 84600.00000 0 10579895.492 -8377007.532 21697082.708 10 0 59779 85500.00000 0 13140598.096 -8021603.785 20386650.999 99